Weather in Lukov

Ukraine / Volyn Oblast     51°02′45″N   25°23′57″E
temp.,
°C
wind,
m/s
gust,
m/s
humid.,
%
clouds,
%
prec.,
mm/h
press.,
hPa
HPBL,
m
20 january, thu
thu2023:00−1sw5990100 0.0 1017289
02:00−2sw51284100 0.0 1014321
05:00−2sw71581100 0.0 1011490
08:00−1sw81880100 0.0 1009778
11:00+1wsw101776100 0.0 1007922
14:00+1wsw81387100 0.0 1006827
17:000sw7158150 0.0 1004895
20:00−2w9147777 0.4 1005933
21 january, fri
fri2123:00−2w101677100 0.1 10051270
02:00−3w91693100 0.5 10061211
05:00−2wnw101674100 0.1 10071220
08:00−3w111771100 0.1 10071023
11:00−3w111779100 0.0 10091032
14:00−2w101680100 0.1 10081210
17:00−3w101993100 0.4 10081372
20:00−3wnw91592100 1.3 10091072
22 january, sat
sat2223:00−3wnw8148994 0.3 1011983
02:00−3wnw81492100 0.5 1011981
05:00−4wnw91694100 0.7 10101113
08:00−4wnw81494100 1.4 1010928
11:00−3nw71191100 1.5 1012896
14:00−2nnw6108175 1.8 10141046
17:00−4nw61188100 0.1 1016662
20:00−4wnw51096100 0.5 1018739
23 january, sun
sun2323:00−4nw61294100 0.6 1019697
02:00−5nnw61192100 0.8 1020561
05:00−6n5989100 0.1 1022544
08:00−7nnw4894100 0.1 1024384
11:00−6n5788100 0.1 1027566
14:00−5nne5679100 0.1 1028843
17:00−6nne4791100 0.1 1030706
20:00−8nne269520 0.1 1032131
24 january, mon
mon2423:00−9n359785 0.0 1034128
02:00−11n249880 0.1 103477
05:00−11n259870 0.0 103491
08:00−12nnw249767 0.0 103573
11:00−8n349082 0.0 1036233
14:00−6nnw348490 0.0 1034431
17:00−9nw24955 0.0 103451
20:00−11nw229763 0.0 103422